Powrót do katalogu

SL-16 DEB

AktywnyLEO
NORAD 48078·DEBRIS·🇷🇺 Russia

Wystrzelony Sep 4, 1996 z Baikonur Cosmodrome

Loading…

Następne Przeloty (najbliższe 24 godziny)

TLE

NieaktualneSource: Space-Track

Epoka: Mar 16, 2021, 04:22 UTC

1 48078U 96051Q   21075.18227694  .00001278  00000-0  63347-3 0  9996
2 48078  71.0590 233.6196 0132231  41.5133 319.5940 14.14595323901851

Śledź SL-16 DEB w czasie rzeczywistym z AllMySat

Download on the App Store